Orbital Elements at Epoch 2459200.5 (2020-Dec-17.0) TDB
Reference: JPL 37 (heliocentric ecliptic J2000)
Element | Value | Uncertainty (1-sigma) | Units |
e | .1353140661324848 | 2.8385e-08 | |
a | 2.308598843767589 | 6.9747e-09 | au |
q | 1.996212947148643 | 6.5388e-08 | au |
i | 3.265561132997358 | 3.252e-06 | deg |
node | 294.344482985833 | 5.9737e-05 | deg |
peri | 303.7520849403381 | 6.1087e-05 | deg |
M | 265.3492780142167 | 1.3471e-05 | deg |
tp | 2459537.354666349897 (2021-Nov-18.85466635) | 4.8319e-05 | TDB |
period | 1281.212412771426 3.51 | 5.8062e-06 1.59e-08 | d yr |
n | .2809838528033568 | 1.2734e-09 | deg/d |
Q | 2.620984740386534 | 7.9185e-09 | au |
|
| | Orbit Determination Parameters
Additional Information
|